Regional Weather Roundup
Issued by NWS

Home | Current Version | Previous Version | Graphics & Text | Print | Product List | Glossary On
Versions: 1 2 3 4 5 6 7 8 9 10 11 12 13 14 15 16 17 18 19 20 21 22 23 24 25 26 27 28 29 30 31 32 33 34 35 36 37 38 39 40 41 42 43 44 45 46 47 48 49 50
000
ASUS43 KIND 051659
RWRIN

WEATHER ROUNDUP FOR INDIANA
NATIONAL WEATHER SERVICE INDIANAPOLIS IN
100 PM EDT SUN JUL 05 2015

NOTE: "FAIR" INDICATES FEW OR NO CLOUDS BELOW 12,000 FEET WITH NO
SIGNIFICANT WEATHER AND/OR OBSTRUCTIONS TO VISIBILITY.

* - STATION DOES NOT REPORT WEATHER SUCH AS PRECIPITATION OR FOG.

+ - STATION NOT QUALITY CONTROLLED BY THE NATIONAL WEATHER SERVICE.
    USE DATA WITH CAUTION...ESPECIALLY DEWPOINT AND RELATIVE
    HUMIDITY OBSERVATIONS.

INZ001>003-010>013-019-020-051800-
NORTHWEST INDIANA

CITY           SKY/WX    TMP DP  RH WIND       PRES   REMARKS
GARY /AIRPORT/ MOSUNNY  N/A N/A N/A SW5       30.10S
KNOX *+        SUNNY     79  57  47 CALM      30.10S
MONTICELLO +   SUNNY     78  61  55 SE3       30.09F
RENSSELAER +   MOSUNNY   79  61  53 CALM      30.11R

$$

LMZ046-743>745-051800-
SOUTHERN LAKE MICHIGAN

STATION/POSITION TIME  TEMP    WIND        PRES    WAVE
                       AIR SEA DIR/SP/G            HT
                 (UTC) (F)     (DEG/KT/KT) (MB)    (FT)
BURNS HARBOR     1600   72      10/  5/  7 1019.6S
MICHIGAN CITY    1600   69      30/  3/  4   N/A
5NW MICH CITY    1600   70 68  350/  4/  6   N/A     0

$$

INZ004-005-014>016-021>024-051800-
NORTH CENTRAL INDIANA

CITY           SKY/WX    TMP DP  RH WIND       PRES   REMARKS
GOSHEN         SUNNY     79  62  56 S7        30.11F
SOUTH BEND     MOSUNNY   80  61  52 NW5       30.11F
WARSAW +         N/A     79  59  50 E5        30.11F

$$

INZ006>009-017-018-025>027-051800-
NORTHEAST INDIANA

CITY           SKY/WX    TMP DP  RH WIND       PRES   REMARKS
ANGOLA *+        N/A     81  73  78 VRB3      30.13R
FORT WAYNE     CLOUDY    79  59  50 CALM      30.13S

$$

INZ028-029-035-036-043>045-051>053-051800-
WEST CENTRAL INDIANA

CITY           SKY/WX    TMP DP  RH WIND       PRES   REMARKS
CRAWFORDSVL +  MOSUNNY   77  56  49 CALM      30.11S
GREENCASTLE +  MOSUNNY   79  59  50 E3        30.11S
LAFAYETTE      SUNNY     79  61  53 CALM      30.09F
TERRE HAUTE    MOSUNNY   79  64  60 E5        30.09S

$$

INZ030>032-037>040-046>048-054>057-064-065-051800-
CENTRAL INDIANA

CITY           SKY/WX    TMP DP  RH WIND       PRES   REMARKS
FRANKFORT +    MOSUNNY   80  60  51 CALM      30.13S
GREENWOOD *+   PTSUNNY   77  61  57 SE6       30.12R
INDIANAPOLIS   MOSUNNY   79  60  52 SE8       30.09S
-EAGLE CREEK   MOSUNNY   80  59  48 E5        30.10S
KOKOMO *+      MOSUNNY   77  61  57 E5        30.10F
MT COMFORT *+  PTSUNNY   79  48  34 SE5       30.12S
SHELBYVILLE    CLOUDY    79  63  57 SE3       30.11R

$$

INZ033-034-041-042-049-050-058-059-051800-
EAST CENTRAL INDIANA

CITY           SKY/WX    TMP DP  RH WIND       PRES   REMARKS
MUNCIE         MOSUNNY   79  60  52 SE6       30.12S

$$

INZ060-061-067>069-081>083-085>088-051800-
SOUTHWEST INDIANA

CITY           SKY/WX    TMP DP  RH WIND       PRES   REMARKS
EVANSVILLE     PTSUNNY   80  70  71 SE7       30.07F HAZE
HUNTINGBURG *+ CLOUDY    79  70  73 CALM      30.09S

$$

INZ062-063-066-070>080-084-089>092-051800-
SOUTH CENTRAL AND SOUTHEAST INDIANA

CITY           SKY/WX    TMP DP  RH WIND       PRES   REMARKS
BLOOMINGTON    PTSUNNY   79  66  64 SE7       30.10S
MADISON *+     CLOUDY    75  61  60 CALM      30.12F
SEYMOUR +      CLOUDY    81  66  61 E5        30.10S

$$




USA.gov is the U.S. government's official web portal to all federal, state and local government web resources and services.